Location: Clarion
(42.7316°N, 93.7330°W)
Time: 09:45:50
(UTC+00:00)

ATLAS 5 CENTAUR R/B - Pass Details

Date: 22 April 2026
Orbit: 302 x 12797 km, 60.8° (Epoch: 14 May)

Event Time Altitude Azimuth Distance (km) Brightness Sun altitude
Exits shadow 09:04:53 25° 168° (SSE) 1,744 4.0 -22.5°
Maximum altitude 09:07:52 47° 107° (ESE) 1,679 4.4 -22.1°
Drops below altitude 10° 09:23:00 10° 41° (NE) 7,102 8.6 -20.0°
Sets 09:32:45 0° 39° (NE) 10,257 9.8 -18.6°
